This is the latest recevied weather packets stored in our database for station/object DH2PG-6. If no packets are shown the sender has not sent any weather packets the latest 10 day(s).
| Time | Temp. | Humidity | Pressure | Rain* | Wind** | Luminosity | Snow |
|---|---|---|---|---|---|---|---|
| 1788635538 | 15° C | 68% | 1022.1 hPa | 0 mm | - | - | - |
| 1788635238 | 15° C | 68% | 1022 hPa | 0 mm | - | - | - |
| 1788634938 | 15° C | 68% | 1022.2 hPa | 0 mm | - | - | - |
| 1788634638 | 15° C | 67% | 1022.1 hPa | 0 mm | - | - | - |
| 1788634337 | 15° C | 67% | 1022.2 hPa | 0 mm | - | - | - |
| 1788634037 | 15° C | 66% | 1022.1 hPa | 0 mm | - | - | - |
| 1788632836 | 15.56° C | 64% | 1022 hPa | 0 mm | - | - | - |
| 1788631935 | 17.22° C | 60% | 1021.8 hPa | 0 mm | - | - | - |
| 1788631635 | 18.33° C | 58% | 1022 hPa | 0 mm | - | - | - |
| 1788631334 | 19.44° C | 56% | 1021.9 hPa | 0 mm | - | - | - |
| 1788631034 | 20.56° C | 54% | 1022 hPa | 0 mm | - | - | - |
| 1788630734 | 21.11° C | 54% | 1021.8 hPa | 0 mm | - | - | - |
| 1788630434 | 20.56° C | 56% | 1021.8 hPa | 0 mm | - | - | - |
| 1788630133 | 20° C | 58% | 1021.8 hPa | 0 mm | - | - | - |
| 1788629833 | 18.89° C | 60% | 1021.7 hPa | 0 mm | - | - | - |
| 1788629559 | 17.78° C | 60% | 1021.6 hPa | 0 mm | - | - | - |
| 1788629232 | 17.78° C | 60% | 1021.5 hPa | 0 mm | - | - | - |
| 1788628932 | 17.78° C | 60% | 1021.5 hPa | 0 mm | - | - | - |
| 1788628632 | 17.78° C | 59% | 1021.4 hPa | 0 mm | - | - | - |
| 1788628332 | 18.33° C | 59% | 1021.4 hPa | 0 mm | - | - | - |
| 1788628031 | 18.33° C | 59% | 1021.5 hPa | 0 mm | - | - | - |
| 1788627731 | 18.33° C | 59% | 1021.3 hPa | 0 mm | - | - | - |
| 1788627431 | 18.33° C | 59% | 1021.3 hPa | 0 mm | - | - | - |
| 1788627130 | 18.33° C | 58% | 1021.5 hPa | 0 mm | - | - | - |
| 1788626530 | 18.89° C | 58% | 1021.3 hPa | 0 mm | - | - | - |
* Rain latest hour (hover to see other rain measurements)
** Current wind speed in m/s (hover to see current wind gust speed)